Topeka Forbes, KS

10:05 AM CST on December 06, 2019 (GMT -0600)
Forbes

Weather History for KFOE - November, 2019

Change the Weather History Date:

Friday, November 15, 2019

  Actual Average Record
Temperature  
Mean Temperature 40 °F -  
Max Temperature 59 °F 54 °F 78 °F (1950)
Min Temperature 21 °F 32 °F 15 °F (1959)
Degree Days  
Heating Degree Days 25    
Moisture  
Dew Point 26 °F    
Average Humidity 62    
Maximum Humidity 85    
Minimum Humidity 35    
Precipitation  
Precipitation 0.00 in - - ()
Sea Level Pressure  
Sea Level Pressure 30.34 in    
Wind  
Wind Speed 5 mph ()    
Max Wind Speed 13 mph    
Max Gust Speed -    
Visibility 10.0 miles    
Events      
Averages and records for this station are not official NWS values.
T = Trace of Precipitation, MM = Missing Value Source: Averaged Metar Reports

Daily Weather History Graph

Daily Weather History Graph

Search for Another Location

Airport or City:

Astronomy

Nov. 15, 2019 Rise Set
Actual Time 7:05 AM CST 5:08 PM CST
Civil Twilight 6:36 AM CST 5:37 PM CST
Nautical Twilight 6:04 AM CST 6:09 PM CST
Astronomical Twilight 5:32 AM CST 6:41 PM CST
Moon 7:46 PM CST (11/15) 10:01 AM CST (11/15)
Length of Visible Light 11h 00m
Length of Day
10h 03m
Waning Gibbous, 90% of the Moon is Illuminated
Nov 15
Waning Gibbous
Nov 19
Last Quarter
Nov 26
New
Dec 4
First Quarter
Dec 11
Full

Hourly Weather History & Observations

Time (CST) Temp. Windchill Dew Point Humidity Pressure Visibility Wind Dir Wind Speed Gust Speed Precip Events Conditions
1:53 AM 23.0 °F 18.4 °F 18.0 °F 81% 30.40 in 10.0 mi South 3.5 mph - N/A   Clear
2:53 AM 23.0 °F 18.4 °F 18.0 °F 81% 30.40 in 10.0 mi South 3.5 mph - N/A   Clear
3:53 AM 21.9 °F 17.2 °F 18.0 °F 85% 30.39 in 10.0 mi South 3.5 mph - N/A   Clear
4:53 AM 23.0 °F - 17.1 °F 78% 30.39 in 10.0 mi Calm Calm - N/A   Clear
5:53 AM 21.9 °F 17.2 °F 17.1 °F 82% 30.40 in 10.0 mi South 3.5 mph - N/A   Clear
6:53 AM 21.9 °F - 18.0 °F 85% 30.40 in 10.0 mi Calm Calm - N/A   Clear
7:53 AM 25.0 °F - 21.0 °F 85% 30.41 in 10.0 mi Calm Calm - N/A   Clear
8:53 AM 37.0 °F 33.3 °F 28.0 °F 70% 30.41 in 10.0 mi SSW 4.6 mph - N/A   Clear
9:53 AM 45.0 °F 41.8 °F 30.0 °F 56% 30.40 in 10.0 mi South 5.8 mph - N/A   Clear
10:53 AM 52.0 °F - 30.9 °F 45% 30.39 in 10.0 mi SSW 6.9 mph - N/A   Clear
11:53 AM 55.0 °F - 30.0 °F 38% 30.37 in 10.0 mi South 11.5 mph - N/A   Clear
12:53 PM 57.9 °F - 30.9 °F 36% 30.35 in 10.0 mi Variable 6.9 mph - N/A   Clear
1:53 PM 59.0 °F - 30.9 °F 35% 30.30 in 10.0 mi SSE 12.7 mph - N/A   Clear
2:53 PM 59.0 °F - 30.9 °F 35% 30.29 in 10.0 mi SSE 12.7 mph - N/A   Clear
3:53 PM 57.0 °F - 30.9 °F 37% 30.29 in 10.0 mi SSE 9.2 mph - N/A   Clear
4:53 PM 52.0 °F - 30.9 °F 45% 30.28 in 10.0 mi SE 9.2 mph - N/A   Clear
5:53 PM 46.9 °F - 30.0 °F 52% 30.28 in 10.0 mi SSE 9.2 mph - N/A   Clear
6:53 PM 42.1 °F 37.7 °F 28.9 °F 60% 30.30 in 10.0 mi SSE 6.9 mph - N/A   Clear
7:53 PM 42.1 °F 37.1 °F 28.9 °F 60% 30.30 in 10.0 mi SSE 8.1 mph - N/A   Clear
9:53 PM 37.0 °F 32.4 °F 28.0 °F 70% 30.29 in 10.0 mi SE 5.8 mph - N/A   Clear
10:53 PM 36.0 °F 30.3 °F 28.0 °F 73% 30.27 in 10.0 mi SE 6.9 mph - N/A   Clear
11:53 PM 36.0 °F 32.1 °F 27.0 °F 70% 30.27 in 10.0 mi ESE 4.6 mph - N/A   Clear